Tracking 35275 objects as of 8-Sep-2026
HD Live streaming from Space Station
objects crossing your sky now

STARLINK 1023


STARLINK 1023 is no longer on orbit
STARLINK 1023 is classified as:


NORAD ID: 44728
Int'l Code: 2019-074R
Launch date: November 11, 2019
Source: United States (US)
Launch site: AIR FORCE EASTERN TEST RANGE (AFETR)
Decay date: 2021-12-20
Your satellite tracking list
Your tracking list is empty




NASA's NSSDC Master Catalog

Two Line Element Set (TLE):
1 44728U 19074R   21354.34851302  .11407015  11984-4  26659-2 0  9993
2 44728  53.0564 197.0620 0011926 249.1406 111.0187 16.28816035117659
Source of the keplerian elements: AFSPC